549  
ASUS43 KDTX 071110  
RWRMI  
MICHIGAN HOURLY REGIONAL WEATHER ROUNDUP  
NATIONAL WEATHER SERVICE DETROIT/PONTIAC MI  
600 AM EST TUE FEB 07 2023  
 
NOTE: "FAIR" INDICATES FEW OR NO CLOUDS BELOW 12,000 FEET WITH NO  
SIGNIFICANT WEATHER AND/OR TO VISIBILITY
.  
 
MIZ047>049-052>055-059>063-066>070-074>076-081>083-071200-  
SOUTHEAST LOWER MICHIGAN  
 
CITY SKY/WX TMP DP RH WIND PRES REMARKS
 
ADRIAN CLOUDY 36 28 73 S13 29.91F WCI 27  
ALMA CLOUDY 38 30 72 S12 29.74F WCI 30  
ANN ARBOR MIX PCPN 32 27 81 S8 29.90F WCI 25  
BAD AXE CLOUDY 32 28 84 S22G30 29.81F WCI 19  
CARO MIX PCPN 37 29 75 S16G25 29.80F WCI 27  
DETROIT CITY CLOUDY 37 27 67 S17G25 29.92F WCI 27  
DETROIT CLOUDY 33 27 78 S13 29.93F WCI 24  
FLINT CLOUDY 35 29 78 S16G25 29.83F WCI 25  
GROSSE ILE CLOUDY 33 32 96 S14G20 29.93F WCI 24  
HILLSDALE CLOUDY 34 28 80 S10G18 29.86F WCI 26  
HOWELL CLOUDY 35 31 86 S15G23 29.85F WCI 25  
 
CITY SKY/WX TMP DP RH WIND PRES REMARKS
 
JACKSON MOCLDY 38 29 70 S22G30 29.84F WCI 27  
LAMBERTVILLE CLOUDY 38 29 71 S3 29.92F  
LANSING PTCLDY 40 29 64 S21G33 29.80F WCI 30  
LAPEER LGT SNOW 33 28 83 S12G25 29.85F WCI 24  
MASON PTCLDY 36 29 76 S15G22 29.82F WCI 26  
MONROE CLOUDY 35 29 78 S8 29.92F WCI 29  
MT. CLEMENS CLOUDY 33 28 84 SE16 29.91F WCI 22  
PONTIAC FRZ RAIN 32 28 86 S17 29.88 WCI 21  
PORT HOPE N/A 33 28 81 S22G38 29.79F WCI 21  
PORT HURON CLOUDY 34 28 80 SE12G22 29.93F WCI 25  
TRI CITIES CLOUDY 36 29 75 S17G28 29.76F WCI 26  
MIDLAND CLOUDY 37 30 78 S10 29.75F WCI 29  
TROY CLOUDY 34 28 77 S8 29.94F WCI 27  
SAGINAW HB CLOUDY 38 29 71 S20G26 29.78F WCI 27  

 
MIZ043>046-050>051-056>058-064>065-071>073-077>080-071200-  
SOUTHWEST LOWER MICHIGAN  
 
CITY SKY/WX TMP DP RH WIND PRES REMARKS
 
BATTLE CREEK MOCLDY 40 29 64 S17G28 29.80F WCI 31  
BENTON HARBOR CLOUDY 49 37 63 S15G26 29.77R  
BIG RAPIDS CLOUDY 38 32 78 S9 29.66F WCI 32  
COLDWATER CLOUDY 38 29 70 S12 29.84F WCI 31  
FREMONT CLOUDY 44 32 62 S8 29.66F  
HOLLAND CLOUDY 44 33 65 S18G28 29.73S  
GRAND RAPIDS MOCLDY 41 30 65 S16 29.73F  
IONIA CLOUDY 40 30 66 S20G28 29.74F WCI 31  
KALAMAZOO MOCLDY 42 30 62 S14 29.80F  
LUDINGTON CLOUDY 44 32 63 S23G36 29.61S  
MARSHALL MOCLDY 38 29 70 S15G23 29.81F WCI 30  
MOUNT PLEASANT CLOUDY 35 30 80 SE7 29.71F WCI 29  
MUSKEGON CLOUDY 46 33 60 S21G39 29.68F  
SOUTH HAVEN CLOUDY 48 34 58 S12G20 29.75F  

 
MIZ016>042-071200-  
NORTHERN LOWER MICHIGAN  
 
CITY SKY/WX TMP DP RH WIND PRES REMARKS
 
ALPENA MIX PCPN 32 29 88 S24G36 29.70F WCI 19  
BEAVER ISLAND LGT SNOW 34 32 92 S6 29.56F WCI 29  
BELLAIRE CLOUDY 36 32 83 S10 29.61F WCI 29  
CADILLAC CLOUDY 36 32 87 S13G20 29.61F WCI 27  
CHARLEVOIX DRIZZLE 35 32 90 S13G23 29.57F WCI 26  
FRANKFORT CLOUDY 42 35 76 S9G20 29.58F  
GAYLORD CLOUDY 34 29 82 S17G26 29.61F WCI 23  
HARBOR SPRINGS MIX PCPN 36 32 87 S3 29.59F  
HOUGHTON LAKE CLOUDY 32 28 85 S14G28 29.66F WCI 22  
MANISTEE CLOUDY 46 36 68 S15G24 29.60F  
OSCODA LGT SNOW 32 29 88 S16G24 29.75F WCI 21  
PELLSTON RAIN 35 32 88 S7G17 29.59F FOG WCI 29  
ROGERS CITY CLOUDY 31 29 90 S14G22 29.65F WCI 21  
TRAVERSE CITY CLOUDY 42 32 67 S15G25 29.57F  

 
MIZ007>008-015-071200-  
EASTERN UPPER MICHIGAN  
 
CITY SKY/WX TMP DP RH WIND PRES REMARKS
 
KINROSS MIX PCPN 28 28 100 SE17 29.60F FOG WCI 16  
MACKINAC ISLAN LGT SNOW 32 32 100 SE12G18 29.59F WCI 23  
NEWBERRY CLOUDY 31 29 94 S12 29.55F FOG WCI 21  
S. S. MARIE LGT SNOW 30 28 92 SE13G22 29.67R FOG WCI 20  

 
MIZ004>006-011>014-085-071200-  
CENTRAL UPPER MICHIGAN  
 
CITY SKY/WX TMP DP RH WIND PRES REMARKS
 
MANISTIQUE LGT SNOW 33 33 99 SE5 29.54F WCI 28  
ESCANABA CLOUDY 34 34 100 CALM 29.54F FOG  
MENOMINEE CLOUDY 36 35 96 VRB7 29.56R WCI 30  
SAWYER-GWINN CLOUDY 32 32 99 SW7 29.50F FOG WCI 26  
MUNISING N/A 34 33 96 S9 29.52F WCI 27  

 
MIZ001>003-009>011-084-071200-  
WESTERN UPPER MICHIGAN  
 
CITY SKY/WX TMP DP RH WIND PRES REMARKS
 
IRON MOUNTAIN CLOUDY 33 32 96 CALM 29.51S FOG  
HOUGHTON CLOUDY 34 31 88 W21G26 29.49R FOG WCI 22  
COPPER HARBOR N/A 33 30 88 VRB5 29.48F WCI 29  
IRONWOOD MIX PCPN 32 30 92 W17G23 29.59R FOG WCI 21  

 
 
ABBREVIATIONS USED IN REMARKS  
TC - TEMPERATURE IN CELSIUS  
WCI - WIND CHILL INDEX  
HX - HEAT INDEX  
VSB - VISIBILITY  
 
 
 
CLICK HERE TO GO TO PREVIOUS BULLETINS.

The Nexlab MI Page Main Text Page